Location: Unspecified
(0.0000°N, 1.0000°E)
Time: 00:25:38
(UTC+01:00)

X-37B - Pass Details

Date: 01 October 2020
Orbit: 382 x 392 km, 45.0° (Epoch: 15 October)

Event Time Altitude Azimuth Distance (km) Brightness Sun altitude
Exits shadow 07:16:36 - 274° (W) 1,444 2.8 -7.2°
Reaches altitude 10° 07:16:46 10° 272° (W) 1,395 2.7 -7.2°
Maximum altitude 07:18:58 18° 227° (SW) 1,040 2.4 -6.6°
Drops below altitude 10° 07:21:10 10° 182° (S) 1,403 3.4 -6.1°
Sets 07:23:42 0° 162° (SSE) 2,261 4.8 -5.5°
